OK3MS-5 Weather Reports


Display with metric or nautical units.
time (UTC)temp
F
wind
direction
speed
MPH
gust
MPH
rain 1hr
in
rain 24hr
in
rain mn
in
humidity
%
barometer
mb
20260507140502 63 304 1.0 9.0 0.00 0.00 0.00 49 1010.5
20260507140003 62 264 2.0 8.0 0.00 0.00 0.00 49 1010.7
20260507135505 64 274 9.0 9.0 0.00 0.00 0.00 49 1010.6
20260507135004 63 271 3.0 12.0 0.00 0.00 0.00 48 1010.6
20260507134505 63 240 2.0 9.0 0.00 0.00 0.00 51 1010.7
20260507134004 63 241 1.0 11.0 0.00 0.00 0.00 52 1010.8
20260507133511 62 270 2.0 6.0 0.00 0.00 0.00 52 1010.8
20260507133003 61 228 5.0 7.0 0.00 0.00 0.00 53 1011.0
20260507132505 63 246 1.0 7.0 0.00 0.00 0.00 52 1010.9
20260507132004 63 227 1.0 8.0 0.00 0.00 0.00 51 1011.0
20260507131503 62 283 1.0 3.0 0.00 0.00 0.00 54 1010.9
20260507131006 62 246 3.0 11.0 0.00 0.00 0.00 53 1011.1
20260507130504 63 300 2.0 11.0 0.00 0.00 0.00 51 1010.9
20260507130005 64 306 6.0 8.0 0.00 0.00 0.00 53 1010.9
20260507125504 64 306 9.0 11.0 0.00 0.00 0.00 52 1010.8
20260507125002 62 240 2.0 6.0 0.00 0.00 0.00 56 1010.8
20260507124504 61 282 2.0 12.0 0.00 0.00 0.00 56 1011.0
20260507124005 61 264 4.0 9.0 0.00 0.00 0.00 59 1011.1
20260507123505 61 311 6.0 9.0 0.00 0.00 0.00 58 1011.2
20260507123003 63 216 8.0 9.0 0.00 0.00 0.00 54 1010.8
20260507122504 62 229 3.0 12.0 0.00 0.00 0.00 56 1011.0
20260507122004 62 230 3.0 9.0 0.00 0.00 0.00 55 1011.0
20260507121504 61 247 6.0 8.0 0.00 0.00 0.00 58 1011.1
20260507121004 61 272 3.0 10.0 0.00 0.00 0.00 58 1011.0
20260507120505 62 292 6.0 12.0 0.00 0.00 0.00 55 1011.0
20260507120004 63 252 6.0 10.0 0.00 0.00 0.00 54 1010.7
20260507115505 63 252 6.0 9.0 0.00 0.00 0.00 54 1010.6
20260507115003 64 288 1.0 9.0 0.00 0.00 0.00 54 1010.5
20260507114504 63 192 1.0 7.0 0.00 0.00 0.00 52 1010.6
20260507114004 62 276 1.0 9.0 0.00 0.00 0.00 56 1010.6
20260507113504 63 264 1.0 9.0 0.00 0.00 0.00 55 1010.5
20260507113005 64 229 10.0 13.0 0.00 0.00 0.00 53 1010.6
20260507112503 64 258 3.0 11.0 0.00 0.00 0.00 54 1010.5
20260507112005 62 299 2.0 8.0 0.00 0.00 0.00 55 1010.6
20260507111503 62 288 6.0 7.0 0.00 0.00 0.00 56 1010.8
20260507111003 62 269 2.0 5.0 0.00 0.00 0.00 58 1010.7
20260507110505 62 292 6.0 9.0 0.00 0.00 0.00 55 1010.7
20260507110005 61 276 2.0 9.0 0.00 0.00 0.00 57 1010.7
20260507105503 61 271 6.0 10.0 0.00 0.00 0.00 58 1010.8
20260507105002 61 258 7.0 12.0 0.00 0.00 0.00 57 1010.8
20260507104502 61 228 2.0 8.0 0.00 0.00 0.00 56 1010.7
20260507104005 63 272 9.0 10.0 0.00 0.00 0.00 55 1010.7
20260507103503 62 306 5.0 6.0 0.00 0.00 0.00 55 1010.6
20260507103003 61 304 1.0 13.0 0.00 0.00 0.00 57 1010.8
20260507102505 62 282 5.0 6.0 0.00 0.00 0.00 56 1010.7
20260507102004 62 281 6.0 9.0 0.00 0.00 0.00 54 1010.8
20260507101503 61 269 2.0 10.0 0.00 0.00 0.00 56 1010.7
20260507101003 61 294 0.0 8.0 0.00 0.00 0.00 57 1010.6
20260507100505 61 192 6.0 9.0 0.00 0.00 0.00 58 1010.9
20260507100003 61 232 7.0 11.0 0.00 0.00 0.00 57 1010.7
20260507095503 61 225 5.0 9.0 0.00 0.00 0.00 57 1010.6
20260507095002 61 210 2.0 13.0 0.00 0.00 0.00 56 1010.6
20260507094502 61 258 5.0 9.0 0.00 0.00 0.00 55 1010.8
20260507094004 61 232 6.0 13.0 0.00 0.00 0.00 57 1010.6
20260507093505 59 244 3.0 8.0 0.00 0.00 0.00 57 1010.7
20260507093004 59 245 5.0 8.0 0.00 0.00 0.00 60 1010.9
20260507092502 60 266 1.0 7.0 0.00 0.00 0.00 59 1010.8
20260507092002 60 126 6.0 7.0 0.00 0.00 0.00 57 1010.7
20260507091505 60 258 2.0 11.0 0.00 0.00 0.00 59 1010.7
20260507091004 60 258 4.0 9.0 0.00 0.00 0.00 59 1010.6
20260507090506 60 258 7.0 7.0 0.00 0.00 0.00 58 1010.6
20260507090004 59 260 0.0 11.0 0.00 0.00 0.00 61 1010.7
20260507085504 58 280 5.0 11.0 0.00 0.00 0.00 61 1010.7
20260507085006 58 286 7.0 9.0 0.00 0.00 0.00 60 1010.7
20260507084503 57 204 2.0 15.0 0.00 0.00 0.00 62 1010.7
20260507084005 58 276 5.0 9.0 0.00 0.00 0.00 61 1010.6
20260507083505 60 274 7.0 7.0 0.00 0.00 0.00 60 1010.5
20260507083003 58 252 4.0 6.0 0.00 0.00 0.00 61 1010.5
20260507082504 58 147 3.0 11.0 0.00 0.00 0.00 63 1010.6
20260507082004 58 210 3.0 7.0 0.00 0.00 0.00 65 1010.5
20260507081503 57 270 0.0 7.0 0.00 0.00 0.00 65 1010.5
20260507081002 57 254 8.0 13.0 0.00 0.00 0.00 66 1010.5
20260507080505 57 258 2.0 12.0 0.00 0.00 0.00 66 1010.5
20260507080005 57 240 9.0 10.0 0.00 0.00 0.00 65 1010.6
20260507075503 57 246 11.0 12.0 0.00 0.00 0.00 67 1010.6
20260507075003 56 268 2.0 10.0 0.00 0.00 0.00 69 1010.6
20260507074503 56 218 2.0 13.0 0.00 0.00 0.00 68 1010.5
20260507074002 56 318 5.0 7.0 0.00 0.00 0.00 70 1010.5
20260507073503 57 259 7.0 8.0 0.00 0.00 0.00 69 1010.5
20260507073004 56 271 6.0 9.0 0.00 0.00 0.00 70 1010.5
20260507072503 56 265 2.0 7.0 0.00 0.00 0.00 72 1010.6
20260507072003 55 160 8.0 8.0 0.00 0.00 0.00 73 1010.7
20260507071504 55 239 2.0 6.0 0.00 0.00 0.00 73 1010.6
20260507071003 55 299 4.0 13.0 0.00 0.00 0.00 72 1010.8
20260507070505 56 132 2.0 8.0 0.00 0.00 0.00 72 1010.6
20260507070008 56 195 2.0 7.0 0.00 0.00 0.00 71 1010.5
20260507065504 55 253 4.0 7.0 0.00 0.00 0.00 72 1010.7
20260507065004 55 302 3.0 6.0 0.00 0.00 0.00 73 1010.7
20260507064504 55 213 7.0 9.0 0.00 0.00 0.00 74 1010.7
20260507064003 55 216 1.0 9.0 0.00 0.00 0.00 75 1010.7
20260507063504 54 78 1.0 6.0 0.00 0.00 0.00 77 1010.8
20260507063004 54 222 1.0 7.0 0.00 0.00 0.00 77 1010.8
20260507062503 54 264 3.0 9.0 0.00 0.00 0.00 79 1010.7
20260507062004 54 234 1.0 2.0 0.00 0.00 0.00 79 1010.8
20260507061506 53 219 1.0 9.0 0.00 0.00 0.00 80 1010.8
20260507061004 54 210 0.0 6.0 0.00 0.00 0.00 81 1010.6
20260507060504 53 228 1.0 3.0 0.00 0.00 0.00 81 1010.7
20260507060003 52 166 0.0 5.0 0.00 0.00 0.00 83 1010.7
20260507055504 52 204 4.0 5.0 0.00 0.00 0.00 83 1010.6
20260507055004 52 162 3.0 11.0 0.00 0.00 0.00 83 1010.5
20260507054502 52 174 6.0 8.0 0.00 0.00 0.00 83 1010.5
20260507054003 52 216 2.0 6.0 0.00 0.00 0.00 84 1010.4
20260507053509 51 204 2.0 3.0 0.00 0.00 0.00 85 1010.5
20260507053003 51 204 0.0 7.0 0.00 0.00 0.00 86 1010.4
20260507052504 51 216 0.0 5.0 0.00 0.00 0.00 87 1010.4
20260507052004 51 204 0.0 2.0 0.00 0.00 0.00 88 1010.4
20260507051503 51 216 0.0 3.0 0.00 0.00 0.00 88 1010.4
20260507051004 51 180 2.0 6.0 0.00 0.00 0.00 88 1010.4
20260507050505 51 222 0.0 6.0 0.00 0.00 0.00 89 1010.4
20260507050008 50 180 0.0 5.0 0.00 0.00 0.00 89 1010.2
20260507045504 50 195 1.0 6.0 0.00 0.00 0.00 89 1010.2
20260507045005 50 174 2.0 6.0 0.00 0.00 0.00 89 1010.2
20260507044502 50 162 3.0 4.0 0.00 0.00 0.00 90 1010.2
20260507044002 50 156 3.0 8.0 0.00 0.00 0.00 90 1010.1
20260507043505 50 201 3.0 5.0 0.00 0.00 0.00 90 1010.0
20260507043005 50 192 5.0 5.0 0.00 0.00 0.00 90 1009.9
20260507042503 50 186 1.0 2.0 0.00 0.00 0.00 90 1010.0
20260507042004 50 192 1.0 4.0 0.00 0.00 0.00 91 1009.8
20260507041502 50 174 4.0 5.0 0.00 0.00 0.00 91 1009.6
20260507041004 50 198 2.0 3.0 0.00 0.00 0.00 91 1009.6
20260507040511 50 198 1.0 4.0 0.00 0.00 0.00 91 1009.7
20260507040002 50 192 0.0 3.0 0.00 0.00 0.00 91 1009.6
20260507035509 50 156 3.0 6.0 0.00 0.00 0.00 91 1009.5
20260507035007 50 168 5.0 6.0 0.00 0.00 0.00 91 1009.3
20260507034503 50 180 1.0 4.0 0.00 0.00 0.00 91 1009.3
20260507034007 51 168 0.0 3.0 0.00 0.00 0.00 91 1009.3
20260507033502 51 144 1.0 5.0 0.00 0.00 0.00 91 1009.2
20260507033004 51 174 2.0 4.0 0.00 0.00 0.00 91 1009.1
20260507032504 51 180 0.0 7.0 0.00 0.00 0.00 91 1008.9
20260507032003 51 166 3.0 3.0 0.00 0.00 0.00 90 1009.0
20260507031503 51 172 3.0 3.0 0.00 0.00 0.00 91 1008.8
20260507031004 51 155 1.0 5.0 0.00 0.00 0.00 90 1008.8
20260507030509 51 150 1.0 7.0 0.00 0.00 0.00 90 1008.8
20260507030005 51 162 3.0 4.0 0.00 0.00 0.00 90 1008.8
20260507025003 51 224 3.0 3.0 0.00 0.00 0.00 91 1008.7
20260507024508 51 224 0.0 1.0 0.00 0.00 0.00 90 1008.7
20260507024002 52 224 0.0 1.0 0.00 0.00 0.00 89 1008.6
20260507023509 52 224 0.0 3.0 0.00 0.00 0.00 90 1008.7
20260507023004 52 213 0.0 2.0 0.00 0.00 0.00 89 1008.7
20260507022510 52 216 0.0 2.0 0.00 0.00 0.00 89 1008.7
20260507022003 53 218 0.0 2.0 0.00 0.00 0.00 89 1008.6
20260507021002 53 210 0.0 2.0 0.00 0.00 0.00 90 1008.5
20260507020512 53 201 1.0 1.0 0.00 0.00 0.00 90 1008.4
20260507020002 53 192 0.0 2.0 0.00 0.00 0.00 91 1008.4
20260507015503 53 192 0.0 2.0 0.00 0.00 0.00 90 1008.2
20260507015009 53 178 2.0 2.0 0.00 0.00 0.00 91 1008.3
20260507014503 53 178 1.0 1.0 0.00 0.00 0.00 91 1008.3
20260507014003 53 174 0.0 1.0 0.00 0.00 0.00 91 1008.2
20260507013503 53 174 0.0 1.0 0.00 0.00 0.00 91 1008.1
20260507013002 53 168 0.0 2.0 0.00 0.00 0.00 91 1008.1
20260507012506 53 198 0.0 2.0 0.00 0.00 0.00 91 1007.9
20260507012003 54 198 0.0 1.0 0.00 0.00 0.00 91 1007.9
20260507011502 54 198 0.0 3.0 0.00 0.00 0.00 90 1007.8
20260507011004 54 198 1.0 2.0 0.00 0.00 0.00 89 1007.8
20260507010506 54 198 5.0 5.0 0.00 0.00 0.00 88 1007.8
20260507010004 54 222 1.0 1.0 0.00 0.00 0.00 88 1007.8
20260507005503 54 222 1.0 3.0 0.00 0.00 0.00 88 1007.8
20260507005002 54 289 1.0 4.0 0.00 0.00 0.00 88 1007.8
20260507004506 54 250 2.0 4.0 0.00 0.00 0.00 89 1007.8
20260507004003 54 244 3.0 5.0 0.00 0.00 0.00 89 1007.8
20260507003507 54 237 1.0 7.0 0.00 0.00 0.00 90 1007.6
20260507003004 54 240 4.0 4.0 0.00 0.00 0.00 90 1007.6
20260507002508 54 240 0.0 4.0 0.00 0.00 0.00 90 1007.5
20260507002004 54 228 2.0 3.0 0.00 0.00 0.00 91 1007.5
20260507001506 54 234 0.0 5.0 0.00 0.00 0.00 91 1007.5
20260507001003 53 219 1.0 3.0 0.00 0.00 0.00 92 1007.5
20260507000502 53 219 1.0 2.0 0.00 0.00 0.00 93 1007.6
20260507000003 53 219 0.0 0.0 0.00 0.00 0.00 93 1007.5
20260506235503 53 219 0.0 0.0 0.00 0.00 0.00 93 1007.5
20260506235003 54 219 0.0 1.0 0.00 0.00 0.00 93 1007.6
20260506234503 54 219 1.0 3.0 0.00 0.00 0.00 93 1007.4
20260506234003 54 219 0.0 2.0 0.00 0.00 0.00 93 1007.4
20260506233504 54 219 0.0 2.0 0.00 0.00 0.00 93 1007.5
20260506233007 54 219 0.0 0.0 0.00 0.00 0.00 93 1007.4
20260506232502 54 219 0.0 1.0 0.00 0.00 0.00 94 1007.5
20260506232009 54 219 0.0 0.0 0.00 0.00 0.00 94 1007.4
20260506231506 54 219 0.0 2.0 0.00 0.00 0.00 94 1007.4
20260506231007 54 219 0.0 3.0 0.00 0.00 0.00 94 1007.4
20260506230506 54 219 3.0 4.0 0.00 0.00 0.00 94 1007.3
20260506230008 54 207 2.0 3.0 0.00 0.00 0.00 93 1007.2
20260506225502 54 233 1.0 4.0 0.00 0.00 0.00 94 1007.2
20260506225008 54 253 5.0 6.0 0.00 0.00 0.00 94 1007.2
20260506224502 54 219 0.0 2.0 0.00 0.00 0.00 94 1007.0
20260506224004 54 240 4.0 6.0 0.00 0.00 0.00 94 1007.0
20260506223508 54 228 3.0 6.0 0.00 0.00 0.00 93 1006.8
20260506223003 55 210 3.0 4.0 0.00 0.00 0.00 93 1006.8
20260506222509 55 252 3.0 6.0 0.00 0.00 0.00 93 1006.7
20260506222002 55 174 2.0 4.0 0.00 0.00 0.00 92 1006.7
20260506221504 55 132 0.0 4.0 0.00 0.00 0.00 92 1006.5
20260506221008 55 186 1.0 1.0 0.00 0.00 0.00 93 1006.5
20260506220510 55 186 0.0 3.0 0.00 0.00 0.00 93 1006.3
20260506220010 55 238 1.0 3.0 0.00 0.00 0.00 94 1006.0
20260506215510 55 246 1.0 3.0 0.00 0.00 0.00 94 1006.0
20260506215004 55 252 0.0 7.0 0.00 0.00 0.00 94 1006.0
20260506214002 55 232 2.0 6.0 0.00 0.00 0.00 93 1006.0
20260506213508 55 222 3.0 6.0 0.00 0.00 0.00 93 1005.9
20260506213003 55 223 0.0 4.0 0.00 0.00 0.00 93 1005.8
20260506212509 55 210 0.0 7.0 0.00 0.00 0.00 93 1005.8
20260506212004 56 204 0.0 6.0 0.00 0.00 0.00 93 1005.6
20260506211002 55 341 0.0 4.0 0.00 0.00 0.00 92 1004.8
20260506210509 55 341 0.0 6.0 0.00 0.00 0.00 93 1004.6
20260506210003 55 340 5.0 9.0 0.00 0.00 0.00 93 1004.6
20260506205507 55 356 3.0 4.0 0.00 0.00 0.00 93 1004.8
20260506205002 55 307 0.0 4.0 0.00 0.00 0.00 92 1005.1
20260506204509 55 251 1.0 3.0 0.00 0.00 0.00 92 1005.0
20260506204002 55 266 2.0 7.0 0.00 0.00 0.00 92 1004.9
20260506203505 55 286 0.0 7.0 0.00 0.00 0.00 92 1005.1
20260506203002 55 277 1.0 9.0 0.00 0.00 0.00 91 1005.2
20260506202505 55 264 6.0 15.0 0.00 0.00 0.00 91 1005.2
20260506202002 56 276 1.0 14.0 0.00 0.00 0.00 91 1005.1
20260506201503 56 240 5.0 10.0 0.00 0.00 0.00 91 1005.1
20260506201004 56 282 11.0 12.0 0.00 0.00 0.00 92 1005.0
20260506200504 56 239 15.0 18.0 0.00 0.00 0.00 92 1004.8
20260506200004 57 288 11.0 13.0 0.00 0.00 0.00 90 1004.5
20260506195510 57 272 5.0 14.0 0.00 0.00 0.00 89 1004.6
20260506195007 58 300 5.0 14.0 0.00 0.00 0.00 87 1004.5
20260506194504 59 258 8.0 9.0 0.00 0.00 0.00 84 1004.3
20260506193502 61 162 6.0 14.0 0.00 0.00 0.00 77 1003.4
20260506193009 62 245 8.0 13.0 0.00 0.00 0.00 71 1002.6
20260506192502 63 168 0.0 7.0 0.00 0.00 0.00 60 1002.4
20260506192005 62 155 6.0 7.0 0.00 0.00 0.00 59 1002.0
20260506191511 61 116 0.0 0.0 0.00 0.00 0.00 63 1001.8
20260506191003 60 116 0.0 0.0 0.00 0.00 0.00 62 1001.8
20260506190506 60 116 0.0 0.0 0.00 0.00 0.00 69 1001.8
20260506190004 60 116 0.0 0.0 0.00 0.00 0.00 68 1001.7
20260506185508 60 116 0.0 0.0 0.00 0.00 0.00 68 1001.7
20260506185003 60 116 0.0 0.0 0.00 0.00 0.00 67 1001.6
20260506184003 60 116 0.0 0.0 0.00 0.00 0.00 67 1001.4
20260506183508 60 116 0.0 0.0 0.00 0.00 0.00 68 1001.3
20260506183003 61 116 0.0 0.0 0.00 0.00 0.00 68 1001.3
20260506182510 61 116 0.0 0.0 0.00 0.00 0.00 69 1001.2
20260506182002 62 116 0.0 0.0 0.00 0.00 0.00 66 1001.0
20260506181511 62 116 0.0 0.0 0.00 0.00 0.00 64 1000.9
20260506181003 62 116 0.0 0.0 0.00 0.00 0.00 68 1000.8
20260506180504 63 116 0.0 0.0 0.00 0.00 0.00 65 1000.6
20260506180005 63 116 0.0 0.0 0.00 0.00 0.00 66 1000.6
20260506175509 65 116 0.0 0.0 0.00 0.00 0.00 56 1000.4
20260506175005 66 116 0.0 0.0 0.00 0.00 0.00 54 1000.3
20260506174502 67 116 0.0 0.0 0.00 0.00 0.00 52 1000.2
20260506174009 67 116 0.0 1.0 0.00 0.00 0.00 51 1000.2
20260506173503 67 116 0.0 0.0 0.00 0.00 0.00 51 1000.2
20260506173004 68 116 0.0 1.0 0.00 0.00 0.00 52 1000.0
20260506172509 68 116 0.0 1.0 0.00 0.00 0.00 51 1000.0
20260506172002 68 116 0.0 1.0 0.00 0.00 0.00 50 1000.1
20260506171513 69 116 0.0 2.0 0.00 0.00 0.00 50 1000.0
20260506171002 69 117 2.0 3.0 0.00 0.00 0.00 49 1000.0
20260506170504 69 134 0.0 0.0 0.00 0.00 0.00 49 999.9
20260506170004 69 134 0.0 1.0 0.00 0.00 0.00 49 1000.1
20260506165504 70 134 0.0 1.0 0.00 0.00 0.00 48 1000.0
20260506165003 70 134 1.0 6.0 0.00 0.00 0.00 48 1000.2
20260506164504 70 48 0.0 4.0 0.00 0.00 0.00 49 1000.2
20260506164003 70 165 2.0 5.0 0.00 0.00 0.00 47 1000.2
20260506163503 71 128 6.0 7.0 0.00 0.00 0.00 47 1000.2
20260506163003 72 138 4.0 7.0 0.00 0.00 0.00 47 1000.1
20260506162504 71 155 5.0 9.0 0.00 0.00 0.00 46 1000.1
20260506162005 71 92 2.0 7.0 0.00 0.00 0.00 47 1000.3
20260506161502 71 115 0.0 11.0 0.00 0.00 0.00 47 1000.4
20260506161004 71 180 9.0 10.0 0.00 0.00 0.00 47 1000.4
20260506160504 71 138 2.0 10.0 0.00 0.00 0.00 48 1000.5
20260506160004 71 148 7.0 8.0 0.00 0.00 0.00 47 1000.6
20260506155503 71 126 0.0 7.0 0.00 0.00 0.00 47 1000.5
20260506155004 72 121 2.0 8.0 0.00 0.00 0.00 47 1000.6
20260506154506 71 110 2.0 9.0 0.00 0.00 0.00 48 1000.6
20260506154004 72 78 3.0 10.0 0.00 0.00 0.00 48 1000.6
20260506153504 73 152 5.0 11.0 0.00 0.00 0.00 45 1000.5
20260506153004 72 154 7.0 9.0 0.00 0.00 0.00 48 1000.7
20260506152505 72 77 3.0 8.0 0.00 0.00 0.00 48 1000.8
20260506152004 71 49 7.0 9.0 0.00 0.00 0.00 49 1000.9
20260506151503 70 109 0.0 6.0 0.00 0.00 0.00 51 1001.0
20260506151004 69 144 4.0 4.0 0.00 0.00 0.00 53 1001.2
20260506150505 69 204 0.0 3.0 0.00 0.00 0.00 54 1001.2
20260506150003 69 204 0.0 10.0 0.00 0.00 0.00 52 1001.2
20260506145504 70 126 6.0 11.0 0.00 0.00 0.00 50 1001.3
20260506145001 71 160 8.0 11.0 0.00 0.00 0.00 48 1001.2
20260506144507 72 126 7.0 8.0 0.00 0.00 0.00 46 1001.1
20260506144003 72 163 2.0 14.0 0.00 0.00 0.00 44 1001.0
20260506143504 71 157 10.0 12.0 0.00 0.00 0.00 45 1001.3
20260506143004 71 169 7.0 14.0 0.00 0.00 0.00 45 1001.3
20260506142503 72 176 6.0 9.0 0.00 0.00 0.00 44 1001.2
20260506142004 73 102 0.0 12.0 0.00 0.00 0.00 43 1001.2
20260506141504 72 127 0.0 8.0 0.00 0.00 0.00 44 1001.2
20260506141006 71 144 6.0 10.0 0.00 0.00 0.00 45 1001.3